PILOTS ONLINE: 313    ATC ONLINE: 34

KTOA

Zamperini Field

Location

City Torrance
Country  United States
Latitude 33° 48' 12" N
Longitude 118° 20' 23" W
Elevation 103 ft
Type Small Airport

Map

Weather

METAR
2014/10/22 02:47
KTOA 220247Z 29006KT 10SM SKC 19/16 A2986 RMK LAST
TAF
No TAF available

Runways

11L/29R 5001 ft / 150 ft
11R/29L 3000 ft / 75 ft

Outbound flights

Callsign Flying to Pilot ATD/STD ETA Aircraft

Inbound flights

Callsign Flying from Pilot ATD ETA Aircraft